User: anonymous   Login
Location: Oshawa
(43.9000°N, 78.8670°W)
Time: 14:15:07
(UTC-04:00)
Language:

Cosmos 1500 - Orbit

View from above orbital plane
View from above orbital plane
View from above satellite
View from above satellite

Ground track
Ground track

The orbit data is extracted from the following two-line orbital elements,

1 14372U 83099A   15114.18990023  .00006925  00000-0  37412-3 0  9992
2 14372 082.5192 037.9120 0015218 293.6139 181.9692 15.14451817718849
Epoch (UTC): 24 April 2015 04:33:27
Eccentricity: 0.0015218
inclination: 82.5192°
perigee height: 512 km
apogee height: 533 km
right ascension of ascending node: 37.9120°
argument of perigee: 293.6139°
revolutions per day: 15.14451817
mean anomaly at epoch: 181.9692°
orbit number at epoch: 71884

The dashed part of the orbit path shows where the satellite is in the earth's shadow,  

DLR